Overview Statistics Trail Chart Weather Telemetry Raw packets
 

This is the latest recevied weather packets stored in our database for station/object KE6YLF. If no packets are shown the sender has not sent any weather packets the latest 10 day(s).

<< 50 51 52 53 54 55 56 >>
Time Temp. Humidity Pressure Rain* Wind** Luminosity Snow
1788343246 28.33° C 63% 1077.8 hPa 0 mm - - -
1788342945 28.33° C 63% 1077.7 hPa 0 mm - - -
1788342644 28.33° C 63% 1077.7 hPa 0 mm - - -
1788342340 28.33° C 62% 1077.8 hPa 0 mm - - -
1788342036 28.33° C 63% 1077.8 hPa 0 mm - - -
1788341730 28.33° C 63% 1077.9 hPa 0 mm - - -
1788341424 27.78° C 63% 1078 hPa 0 mm - - -
1788341119 27.78° C 63% 1077.9 hPa 0 mm - - -
1788340814 28.33° C 63% 1077.9 hPa 0 mm - - -
1788340510 28.89° C 62% 1077.9 hPa 0 mm - - -
1788340206 28.33° C 63% 1077.9 hPa 0 mm - - -
1788339901 28.33° C 63% 1078 hPa 0 mm - - -
1788339599 28.33° C 62% 1078 hPa 0 mm - - -
1788339295 28.89° C 62% 1077.9 hPa 0 mm - - -
1788338990 28.89° C 62% 1078 hPa 0 mm - - -
1788338687 28.33° C 63% 1078 hPa 0 mm - - -
1788338382 28.89° C 62% 1077.9 hPa 0 mm - - -
1788338082 28.89° C 62% 1078.1 hPa 0 mm - - -
1788337777 28.89° C 62% 1078.1 hPa 0 mm - - -
1788337472 28.89° C 61% 1078.2 hPa 0 mm - - -
1788337169 28.89° C 61% 1078 hPa 0 mm - - -
1788336865 28.89° C 61% 1078 hPa 0 mm - - -
1788336560 29.44° C 60% 1077.9 hPa 0 mm - - -
1788336256 29.44° C 60% 1078.1 hPa 0 mm - - -
1788335955 29.44° C 60% 1078.1 hPa 0 mm - - -

* Rain latest hour (hover to see other rain measurements)
** Current wind speed in m/s (hover to see current wind gust speed)